Flag for U.S.A. Weather past 2 weeks in Sioux Falls, South Dakota, U.S.A.

Now
71 °F

Clear.


Feels Like: 69 °F
Forecast: 67 / 90 °F
Wind: 7 mph from South

Location: Foss Field

Current Time: Sep 2, 2015 at 3:36:57 AM

Latest Report: Sep 2, 2015 at 2:56 AM


Visibility: 10 mi

Pressure: 29.81 "Hg

Humidity: 87%

Dew point: 67 °F

Location of Sioux FallsLocation

Historic Weather in Sioux Falls — Graph

°F

Sioux Falls temperature yesterday

Maximum temperature yesterday: 79 °F (at 12:56 PM)
Minimum temperature yesterday: 68 °F (at 6:56 AM)
Average temperature yesterday: 74 °F

Past Weeks' High & Low Weather Summary

 TemperatureHumidityPressure
High82 °F (Aug 31, 2:56 PM)97% (Aug 25, 6:56 AM)30.22 "Hg (Aug 25, 6:56 AM)
Low43 °F (Aug 25, 6:56 AM)34% (Aug 19, 2:56 AM)29.53 "Hg (Aug 18, 5:56 PM)
Average65 °F76%29.92 "Hg
* Reported Aug 18 1:56 AM — Sep 2 1:56 AM, Sioux Falls, Weather by CustomWeather, © 2015

Note: Actual official high and low records may vary slightly from our data, if they occured in-between our weather recording intervals... More about our weather records

Advertising

Sioux Falls weather history for previous 24 hours

 ConditionsComfort  
Time TempWeatherWind HumidityBarometerVisibility
1:56 AM
Wed, Sep 2
73 °FClear.10 mph88%29.82 "Hg10 mi
12:56 AM74 °FClear.8 mph88%29.82 "Hg10 mi
11:56 PM
Tue, Sep 1
74 °FPassing clouds.6 mph88%29.83 "Hg9 mi
10:56 PM75 °FPassing clouds.7 mph88%29.84 "Hg10 mi
9:56 PM74 °FPassing clouds.No wind91%29.84 "Hg7 mi
8:56 PM73 °FPartly sunny.7 mph94%29.85 "Hg7 mi
7:56 PM75 °FMostly cloudy.5 mph88%29.85 "Hg8 mi
6:56 PM75 °FMostly cloudy.6 mph88%29.85 "Hg8 mi
5:56 PM76 °FOvercast.No wind85%29.85 "Hg10 mi
3:56 PM78 °FMostly cloudy.10 mph74%29.84 "Hg10 mi
2:56 PM79 °FMostly cloudy.13 mph74%29.85 "Hg10 mi
1:56 PM79 °FMostly cloudy.12 mph74%29.85 "Hg10 mi
12:56 PM79 °FBroken clouds.9 mph74%29.86 "Hg10 mi
12:00 PM75 °FMostly cloudy.6 mph82%29.92 "Hg10 mi
10:56 AM75 °FMore clouds than sun.6 mph82%29.87 "Hg10 mi
9:56 AM73 °FMore clouds than sun.7 mph84%29.86 "Hg7 mi
8:56 AM72 °FMostly cloudy.No wind84%29.87 "Hg9 mi
7:56 AM69 °FFog.5 mph90%29.86 "Hg5 mi
6:56 AM68 °FFog.3 mph93%29.87 "Hg5 mi
5:56 AM69 °FMostly cloudy.6 mph90%29.86 "Hg7 mi
4:56 AM69 °FOvercast.3 mph90%29.87 "Hg9 mi
3:56 AM71 °FClear.3 mph87%29.85 "Hg10 mi
Weather by CustomWeather, © 2015

See weather overviewHow to use our weather pages